Regional Weather Roundup
Issued by NWS

Home | Current Version | Previous Version | Graphics & Text | Print | Product List | Glossary On
Versions: 1 2 3 4 5 6 7 8 9 10 11 12 13 14 15 16 17 18 19 20 21 22 23 24 25 26 27 28 29 30 31 32 33 34 35 36 37 38 39 40 41 42 43 44 45 46 47 48 49 50
000
ASUS43 KOAX 240002
RWRNE

WEATHER ROUNDUP FOR NEBRASKA
NATIONAL WEATHER SERVICE OMAHA NE
700 PM CDT SUN APR 23 2017

NOTES: SATELLITE DATA IS BEING USED TO AUGMENT CLOUD COVER ABOVE
       12000 FEET.
       "FAIR" INDICATES FEW OR NO CLOUDS BELOW 12,000 FEET WITH NO
       SIGNIFICANT WEATHER AND/OR OBSTRUCTIONS TO VISIBILITY.

  * THESE STATIONS DO NOT REPORT WEATHER SUCH AS RAIN...SNOW OR FOG.

NEZ001>004-019>022-054>056-240100-
NEBRASKA PANHANDLE

CITY           SKY/WX    TMP DP  RH WIND       PRES   REMARKS
SCOTTSBLUFF    CLOUDY    74  29  19 S17       29.67F
6HR MIN TEMP:  70; 6HR MAX TEMP:  78;

ALLIANCE       CLOUDY    67  39  35 S18       29.68F
6HR MIN TEMP:  65; 6HR MAX TEMP:  73;

CHADRON        CLOUDY    70  41  34 S10       29.62F
6HR MIN TEMP:  70; 6HR MAX TEMP:  76;

KIMBALL        CLOUDY    67  41  39 S10       29.72F
SIDNEY         CLOUDY    66  41  40 S18G24    29.73F
6HR MIN TEMP:  61; 6HR MAX TEMP:  70;

$$

NEZ057>060-069>072-079>082-240100-
SOUTHWEST NEBRASKA

CITY           SKY/WX    TMP DP  RH WIND       PRES   REMARKS
NORTH PLATTE   MOSUNNY   68  35  29 S21G29    29.77F
6HR MIN TEMP:  65; 6HR MAX TEMP:  72;

IMPERIAL       CLOUDY    68  36  30 S25G32    29.76F
6HR MIN TEMP:  61; 6HR MAX TEMP:  70;

LEXINGTON      CLOUDY    67  24  19 S29G36    29.81F
MCCOOK         MOSUNNY   68  35  29 S23G33    29.80F
6HR MIN TEMP:  65; 6HR MAX TEMP:  72;

OGALLALA       CLOUDY    72  37  27 S17G28    29.73F
$$

NEZ005>010-023>029-035>040-094-240100-
NORTH CENTRAL NEBRASKA

CITY           SKY/WX    TMP DP  RH WIND       PRES   REMARKS
VALENTINE      CLOUDY    72  32  23 S24G31    29.70F
6HR MIN TEMP:  68; 6HR MAX TEMP:  75;

AINSWORTH      CLOUDY    68  34  28 S17G23    29.74F
BROKEN BOW     SUNNY     69  25  19 S23G36    29.79F
6HR MIN TEMP:  66; 6HR MAX TEMP:  72;

O`NEILL        CLOUDY    68  22  17 S21G28    29.78F
ORD            SUNNY     68  25  19 S22G38    29.80F
6HR MIN TEMP:  65; 6HR MAX TEMP:  71;

THEDFORD       MOSUNNY   69  38  31 S22G29    29.77S
$$

NEZ041-046>049-061>064-073>077-083>087-240100-
SOUTH CENTRAL NEBRASKA

CITY           SKY/WX    TMP DP  RH WIND       PRES   REMARKS
GRAND ISLAND   CLOUDY    66  28  24 S22G36    29.87F
6HR MIN TEMP:  66; 6HR MAX TEMP:  72;

AURORA         CLOUDY    67  27  22 S24G30    29.88F
HASTINGS       CLOUDY    66  28  24 S17G28    29.88F
6HR MIN TEMP:  65; 6HR MAX TEMP:  71;

HEBRON         CLOUDY    66  30  26 S16G23    29.93F
HOLDREGE       CLOUDY    66  27  23 S26G35    29.84F
KEARNEY *      CLOUDY    66  27  22 S25G35    29.85F
YORK           CLOUDY    66  27  22 S20G29    29.90F
$$

NEZ011>018-030>034-042>045-240100-
NORTHEAST NEBRASKA

CITY           SKY/WX    TMP DP  RH WIND       PRES   REMARKS
NORFOLK        SUNNY     69  25  19 S21G32    29.84F
6HR MIN TEMP:  67; 6HR MAX TEMP:  73;

ALBION         SUNNY     69  24  18 S24G32    29.84F
BLAIR          CLOUDY    71  28  20 S22       29.91F
FREMONT        SUNNY     69  27  20 S18G25    29.90F
TEKAMAH        SUNNY     69  34  27 S18       29.89F
6HR MIN TEMP:  68; 6HR MAX TEMP:  74;

WAYNE          MOSUNNY   69  28  21 SW21G30   29.84F
$$

NEZ050>053-065>068-078-088>093-240100-
SOUTHEAST NEBRASKA

CITY           SKY/WX    TMP DP  RH WIND       PRES   REMARKS
LINCOLN        SUNNY     69  28  21 S18G26    29.92F
6HR MIN TEMP:  68; 6HR MAX TEMP:  73;

OMAHA EPPLEY   CLOUDY    71  27  19 S13G24    29.92F
6HR MIN TEMP:  69; 6HR MAX TEMP:  73;

BEATRICE       CLOUDY    66  33  29 S13G21    29.95F
FALLS CITY     CLOUDY    67  33  28 S12G18    29.97F
6HR MIN TEMP:  66; 6HR MAX TEMP:  70;

NEBRASKA CITY  CLOUDY    68  19  15 S18       29.95F
PLATTSMOUTH    SUNNY     69  14  12 S17       29.93F
$$

NEZ044-045-051>053-067-240100-
OMAHA AREA

CITY           SKY/WX    TMP DP  RH WIND       PRES   REMARKS
OMAHA EPPLEY   CLOUDY    71  27  19 S13G24    29.92F
6HR MIN TEMP:  69; 6HR MAX TEMP:  73;

BLAIR          CLOUDY    71  28  20 S22       29.91F
FREMONT        SUNNY     69  27  20 S18G25    29.90F
MILLARD        CLOUDY    72  31  21 S10G16    29.93S
OFFUTT AFB     CLOUDY    70  28  21 S16       29.92F
PLATTSMOUTH    SUNNY     69  14  12 S17       29.93F
WAHOO          FAIR      69  26  19 S18G29    29.92S
$$



USA.gov is the U.S. government's official web portal to all federal, state and local government web resources and services.